Location: Wildlife_Club
(35.6000°N, 81.4330°W)
Time: 21:45:25
(UTC-04:00)

A-11 Canister half - Pass Details

Date: 27 June 2019
Orbit: 1514 x 1686 km, 47.2° (Epoch: 13 October)

Event Time Altitude Azimuth Distance (km) Brightness Sun altitude
Rises 09:22:11 0° 218° (SW) 4,928 11.3 35.8°
Reaches altitude 10° 09:25:24 10° 215° (SW) 3,939 10.9 36.5°
Maximum altitude 09:35:21 63° 137° (SE) 1,820 10.4 38.5°
Drops below altitude 10° 09:45:05 10° 60° (ENE) 3,865 12.0 40.4°
Sets 09:48:12 0° 57° (ENE) 4,831 12.3 41.1°
